Location: *
(57.8420°S, 159.8600°W)
Time: 05:13:35
(UTC+00:00)

Cosmos 1980 Rocket - Pass Details

Date: 18 May 2021
Orbit: 831 x 848 km, 71.0° (Epoch: 20 June)

Event Time Altitude Azimuth Distance (km) Brightness Sun altitude
Rises 03:22:45 0° 280° (W) 3,407 7.1 -7.3°
Reaches altitude 10° 03:25:29 10° 269° (W) 2,480 5.8 -7.6°
Maximum altitude 03:30:30 31° 207° (SSW) 1,465 3.5 -8.2°
Drops below altitude 10° 03:35:35 10° 145° (SE) 2,502 4.1 -8.8°
Enters shadow 03:36:20 - 141° (SE) 2,748 4.3 -8.9°
